Regional Weather Roundup
Issued by NWS Goodland, KS

Home | Current Version | Previous Version | Text Only | Print | Product List | Glossary On
Versions: 1 2 3 4 5 6 7 8 9 10 11 12 13 14 15 16 17 18 19 20 21 22 23 24 25 26 27 28 29 30 31 32 33 34 35 36 37 38 39 40 41 42 43 44 45 46 47 48 49 50
000
ASUS43 KGLD 261008
RWRGLD

GOODLAND FORECAST AREA HOURLY WEATHER ROUNDUP
NATIONAL WEATHER SERVICE GOODLAND KS
400 AM MDT WED JUL 26 2017

...OFFICIAL OBSERVATIONS...

CITY           SKY/WX    TMP DP  RH WIND       PRES   REMARKS
GOODLAND KS    CLOUDY    71  62  73 W12       29.97F
HILL CITY KS   CLOUDY    77  69  76 SW7       29.90R
IMPERIAL NEB   CLOUDY    69  66  90 NE16G24   29.96R
MCCOOK NEB     CLOUDY    74  70  87 E8        29.88S
AKRON CO       CLEAR     67  59  75 N13       30.10R
BURLINGTON CO  CLOUDY    70  61  73 NW10      30.04R
LIMON CO       CLOUDY    62  59  90 NW12      30.18R
$$

...UNOFFICIAL OBSERVATIONS...

CITY           SKY/WX    TMP DP  RH WIND       PRES   REMARKS
LENORA KS        N/A     78  32  18 MISG        N/A
NORTON KS      CLEAR     79  63  57 SE7       29.88
SHARON SPRINGS   N/A     69  65  88 CALM        N/A
TRENTON NEB      N/A     72  32  23 CALM        N/A
KIT CARSON CO    N/A     71  59  66 MISG        N/A
YUMA CO        FAIR      66  54  63 N15       30.04S
$$



USA.gov is the U.S. government's official web portal to all federal, state and local government web resources and services.